This demonstration page uses our WeatherBlox Daily Observations layout. Learn more.

Left ArrowRight Arrow

Hourly Observations for September 10, 2017

Temp ( °F °C ) Dew Point ( °F °C ) Humidity (%) Winds ( mph kmh ) Pressure ( in mb ) Visibility ( mi km ) Precip ( " mm )
12:10 am 00:10 Clear 50 10 45 7 82 82 ENE 6 9 30.39 1029 10 16 N/A
12:30 am 00:30 Clear 48 9 45 7 87 87 ENE 8 13 30.39 1029 10 16 N/A
12:50 am 00:50 Clear 50 10 46 8 88 88 ENE 8 13 30.39 1029 10 16 N/A
1:10 am 01:10 Clear 50 10 46 8 88 88 E 6 9 30.39 1029 10 16 N/A
1:30 am 01:30 Clear 48 9 46 8 94 94 ENE 5 7 30.39 1029 10 16 N/A
1:50 am 01:50 Clear 48 9 46 8 94 94 E 6 9 30.39 1029 10 16 N/A
2:10 am 02:10 Clear 48 9 45 7 87 87 E 6 9 30.39 1029 10 16 N/A
2:30 am 02:30 Clear 48 9 45 7 87 87 E 5 7 30.39 1029 10 16 N/A
2:50 am 02:50 Clear 46 8 45 7 93 93 E 3 6 30.39 1029 10 16 N/A
3:10 am 03:10 Clear 46 8 45 7 93 93 ENE 3 6 30.39 1029 10 16 N/A
3:30 am 03:30 Clear 45 7 43 6 93 93 N N/A 30.39 1029 10 16 N/A
3:50 am 03:50 Clear 45 7 43 6 93 93 NE 3 6 30.39 1029 10 16 N/A
4:10 am 04:10 Clear 45 7 43 6 93 93 N N/A 30.39 1029 10 16 N/A
4:30 am 04:30 Clear 43 6 41 5 93 93 N N/A 30.42 1030 10 16 N/A
4:50 am 04:50 Clear 43 6 43 6 100 100 N N/A 30.42 1030 10 16 N/A
5:10 am 05:10 Clear 43 6 41 5 93 93 NNE 3 6 30.42 1030 10 16 N/A
5:30 am 05:30 Clear 43 6 41 5 93 93 NNE 3 6 30.42 1030 10 16 N/A
5:50 am 05:50 Clear 41 5 41 5 100 100 N N/A 30.42 1030 10 16 N/A
6:10 am 06:10 Clear 43 6 41 5 93 93 NNE 3 6 30.42 1030 10 16 N/A
6:30 am 06:30 Clear 41 5 41 5 100 100 N N/A 30.42 1030 10 16 N/A
6:49 am 06:49 Clear 41 5 39 4 93 93 N N/A 30.42 1030 10 16 N/A
7:10 am 07:10 Clear 41 5 41 5 100 100 N 3 6 30.42 1030 10 16 N/A
7:30 am 07:30 Sunny 41 5 39 4 93 93 N N/A 30.45 1031 10 16 N/A
7:50 am 07:50 Sunny 41 5 39 4 93 93 N N/A 30.45 1031 10 16 N/A
8:10 am 08:10 Sunny 41 5 41 5 100 100 N N/A 30.45 1031 10 16 N/A
8:30 am 08:30 Sunny 45 7 43 6 93 93 N N/A 30.42 1030 10 16 N/A
8:50 am 08:50 Sunny 46 8 45 7 93 93 N N/A 30.42 1030 10 16 N/A
9:10 am 09:10 Sunny 48 9 46 8 94 94 N N/A 30.42 1030 10 16 N/A
9:30 am 09:30 Sunny 52 11 48 9 88 88 ENE 3 6 30.42 1030 10 16 N/A
9:50 am 09:50 Sunny 55 13 50 10 82 82 E 5 7 30.42 1030 10 16 N/A
10:10 am 10:10 Sunny 57 14 48 9 72 72 E 5 7 30.45 1031 10 16 N/A
10:30 am 10:30 Sunny 59 15 48 9 68 68 ESE 7 11 30.45 1031 10 16 N/A
10:49 am 10:49 Sunny 61 16 48 9 63 63 ESE 5 7 30.42 1030 10 16 N/A
11:10 am 11:10 Sunny 63 17 50 10 64 64 SE 6 9 30.42 1030 10 16 N/A
11:30 am 11:30 Sunny 64 18 48 9 56 56 E 6 9 30.42 1030 10 16 N/A
11:49 am 11:49 Sunny 66 19 48 9 52 52 E 9 15 30.39 1029 10 16 N/A
12:10 pm 12:10 Sunny 66 19 46 8 49 49 ESE 6 9 30.39 1029 10 16 N/A
12:30 pm 12:30 Sunny 68 20 46 8 46 46 E 7 11 30.39 1029 10 16 N/A
12:50 pm 12:50 Sunny 68 20 46 8 46 46 E 8 13 30.39 1029 10 16 N/A
1:10 pm 13:10 Sunny 68 20 46 8 46 46 E 10 17 30.39 1029 10 16 N/A
1:30 pm 13:30 Sunny 70 21 46 8 43 43 E 6 9 30.39 1029 10 16 N/A
1:50 pm 13:50 Sunny 70 21 46 8 43 43 E 10 17 30.39 1029 10 16 N/A
2:10 pm 14:10 Sunny 70 21 46 8 43 43 E 12 19 30.36 1028 10 16 N/A
2:30 pm 14:30 Sunny 70 21 46 8 43 43 ENE 13 20 30.36 1028 10 16 N/A
2:50 pm 14:50 Sunny 70 21 45 7 40 40 SE 6 9 30.36 1028 10 16 N/A
3:10 pm 15:10 Sunny 70 21 46 8 43 43 ESE 9 15 30.36 1028 10 16 N/A
3:30 pm 15:30 Sunny 72 22 46 8 41 41 E 10 17 30.36 1028 10 16 N/A
3:50 pm 15:50 Sunny 72 22 46 8 41 41 E 8 13 30.33 1027 10 16 N/A
4:10 pm 16:10 Sunny 72 22 46 8 41 41 ENE 10 17 30.33 1027 10 16 N/A
4:30 pm 16:30 Sunny 72 22 46 8 41 41 E 10 17 30.33 1027 10 16 N/A
4:50 pm 16:50 Sunny 72 22 46 8 41 41 E 8 13 30.30 1026 10 16 N/A
5:10 pm 17:10 Sunny 72 22 46 8 41 41 ENE 8 13 30.30 1026 10 16 N/A
5:30 pm 17:30 Sunny 72 22 46 8 41 41 ESE 10 17 30.30 1026 10 16 N/A
5:50 pm 17:50 Sunny 72 22 46 8 41 41 E 6 9 30.30 1026 10 16 N/A
6:10 pm 18:10 Sunny 70 21 46 8 43 43 E 9 15 30.30 1026 10 16 N/A
6:30 pm 18:30 Sunny 70 21 46 8 43 43 E 8 13 30.30 1026 10 16 N/A
6:50 pm 18:50 Sunny 70 21 46 8 43 43 E 9 15 30.30 1026 10 16 N/A
7:10 pm 19:10 Sunny 68 20 46 8 46 46 ENE 10 17 30.30 1026 10 16 N/A
7:30 pm 19:30 Sunny 66 19 46 8 49 49 ENE 8 13 30.30 1026 10 16 N/A
7:50 pm 19:50 Sunny 63 17 48 9 59 59 ENE 6 9 30.30 1026 10 16 N/A
8:10 pm 20:10 Clear 61 16 48 9 63 63 ENE 5 7 30.30 1026 10 16 N/A
8:30 pm 20:30 Clear 57 14 50 10 77 77 ENE 5 7 30.33 1027 10 16 N/A
8:50 pm 20:50 Clear 54 12 48 9 82 82 ENE 3 6 30.33 1027 10 16 N/A
9:10 pm 21:10 Clear 54 12 48 9 82 82 E 5 7 30.33 1027 10 16 N/A
9:30 pm 21:30 Clear 54 12 48 9 82 82 N N/A 30.33 1027 10 16 N/A
9:50 pm 21:50 Clear 52 11 48 9 88 88 NE 3 6 30.33 1027 10 16 N/A
10:10 pm 22:10 Clear 50 10 46 8 88 88 ENE 3 6 30.33 1027 10 16 N/A
10:30 pm 22:30 Clear 50 10 46 8 88 88 N N/A 30.33 1027 10 16 N/A
10:50 pm 22:50 Clear 50 10 45 7 82 82 N N/A 30.33 1027 10 16 N/A
11:10 pm 23:10 Clear 50 10 46 8 88 88 N N/A 30.33 1027 10 16 N/A
11:30 pm 23:30 Clear 48 9 45 7 87 87 NNE 5 7 30.33 1027 10 16 N/A
11:50 pm 23:50 Clear 48 9 45 7 87 87 NE 5 7 30.33 1027 10 16 N/A

Powered by AerisWeather